Regional Weather Roundup
Issued by NWS Jackson, KY

Home | Current Version | Previous Version | Graphics & Text | Print | Product List | Glossary On
Versions: 1 2 3 4 5 6 7 8 9 10 11 12 13 14 15 16 17 18 19 20 21 22 23 24 25 26 27 28 29 30 31 32 33 34 35 36 37 38 39 40 41 42 43 44 45 46 47 48 49 50
000
ASUS43 KJKL 170319
RWRJKL

EAST KENTUCKY HOURLY WEATHER ROUNDUP
NATIONAL WEATHER SERVICE JACKSON KY
1100 PM EDT WED APR 16 2014

NOTE: "FAIR" INDICATES FEW OR NO CLOUDS BELOW 12,000 FEET WITH
NO SIGNIFICANT WEATHER AND/OR OBSTRUCTIONS TO VISIBILITY.

* THESE REPORTS ARE NOT UNDER NWS QUALITY CONTROL AND MAY NOT
  REPORT WEATHER SUCH AS PRECIPITATION AND FOG.

KYZ079-080-083-085-087-088-110-112-115-119-120-170400
...EASTERN KENTUCKY...

CITY           SKY/WX    TMP DP  RH WIND       PRES   REMARKS
JACKSON        PTCLDY    46  19  34 NE5       30.25R
LONDON         CLEAR     44  27  51 CALM      30.23S
SOMERSET*      MOCLDY    46  23  39 CALM      30.24S
MONTICELLO*    PTCLDY    38  30  73 CALM      30.24R
MIDDLESBORO*   CLEAR     40  32  71 CALM      30.26R
HARLAN APT*    CLEAR     43  30  61 CALM      30.25R
BLACK MTN*       N/A     41  21  45 E7          N/A
PIKEVILLE APT* CLEAR     46  21  36 E6        30.25S
BIG SANDY*     PTCLDY    44  24  45 E6        30.25F
ASHLAND*       CLEAR     45  21  39 SE3       30.28S
MOREHEAD APT*  CLEAR     45  19  36 MISG      30.28R
$$

KYZ035-036-041-042-044-050-067-078-099-170400
...CENTRAL KENTUCKY...

CITY           SKY/WX    TMP DP  RH WIND       PRES   REMARKS
MT STERLING*   MOCLDY    43  23  45 E6        30.27R
FLEMING/MASON* CLEAR     39  23  52 E5        30.28S
DANVILLE*      MOCLDY    41  28  60 CALM      30.24R
LEXINGTON      MOCLDY    47  22  37 E8        30.24S
FRANKFORT      MOCLDY    42  25  50 E7        30.23S
$$

KYZ091>093-OHZ055-061-077-WVZ005-015-034-035-042-170400
...SOUTHERN OHIO/WEST VIRGINIA...

CITY           SKY/WX    TMP DP  RH WIND       PRES   REMARKS
COVINGTON      PTCLDY    43  23  45 E7        30.26R
COLUMBUS       MOCLDY    42  22  44 E10       30.32S
DAYTON         MOCLDY    43  25  49 E8        30.30R
WILMINGTON     PTCLDY    39  24  55 E7        30.28S WCI  34
HUNTINGTON     PTCLDY    42  20  41 E7        30.28S
CHARLESTON     PTCLDY    45  22  40 E10       30.29F
PINEVILLE*     CLEAR     47  26  44 MISG      30.35S
BECKLEY        CLEAR     41  19  41 SE16G24   30.31S
BLUEFIELD      CLEAR     42  17  36 SE8       30.33R
$$

VAZ002-007-008-TNZ017-027-036-066-071-170400
...SOUTHWEST VIRGINIA/EAST TENNESSEE...

CITY           SKY/WX    TMP DP  RH WIND       PRES   REMARKS
WISE*          CLEAR     45  14  29 S8        30.28R
ABINGDON*      CLEAR     45  19  35 E10       30.31R
BRISTOL        PTCLDY    49  18  29 E12G17    30.30R
KNOXVILLE      PTCLDY    47  31  53 CALM      30.25R
OAK RIDGE      CLEAR     45  33  63 CALM      30.26S
CROSSVILLE     CLEAR     46  28  49 CALM      30.24R
NASHVILLE      PTCLDY    47  32  56 CALM      30.21R
$$

...KEY TO REMARKS...
VSB - VISIBILITY IN MILES
WCI - WIND CHILL INDEX
HX  - HEAT INDEX

$$



USA.gov is the U.S. government's official web portal to all federal, state and local government web resources and services.